Powrót do katalogu

DISKSAT A

AktywnyNaukaVLEO
NORAD 67222·PAYLOAD·🇺🇸 United States

Wystrzelony Dec 18, 2025 z Wallops Flight Facility

Loading…

Następne Przeloty (najbliższe 24 godziny)

TLE

ŚwieżeSource: Space-Track

Epoka: Sep 13, 2026, 21:48 UTC

1 67222U 25305D   26256.90885559  .00003076  00000-0  19897-3 0  9997
2 67222  45.0048 331.7523 0007107 304.6453  55.3753 15.10430844 40727

Śledź DISKSAT A w czasie rzeczywistym z AllMySat

Download on the App Store